TimePDT,TemperatureF,Dew PointF,Humidity,Sea Level PressureIn,VisibilityMPH,Wind Direction,Wind SpeedMPH,Gust SpeedMPH,PrecipitationIn,Events,Conditions,WindDirDegrees,DateUTC
12:56 AM,39.9,36.0,86,30.27,10.0,SE,4.6,-,N/A,,Clear,130,2012-10-06 07:56:00
1:56 AM,41.0,37.0,86,30.27,10.0,Calm,Calm,-,N/A,,Clear,0,2012-10-06 08:56:00
2:56 AM,42.1,37.9,85,30.28,10.0,East,4.6,-,N/A,,Clear,100,2012-10-06 09:56:00
3:56 AM,42.1,37.9,85,30.26,10.0,Calm,Calm,-,N/A,,Clear,0,2012-10-06 10:56:00
4:56 AM,37.9,35.1,89,30.26,10.0,South,3.5,-,N/A,,Clear,170,2012-10-06 11:56:00
5:56 AM,43.0,37.0,80,30.27,10.0,Calm,Calm,-,N/A,,Clear,0,2012-10-06 12:56:00
6:56 AM,39.9,36.0,86,30.27,10.0,Calm,Calm,-,N/A,,Clear,0,2012-10-06 13:56:00
7:56 AM,43.0,39.0,86,30.27,10.0,Calm,Calm,-,N/A,,Clear,0,2012-10-06 14:56:00
8:56 AM,48.9,45.0,86,30.28,10.0,Calm,Calm,-,N/A,,Clear,0,2012-10-06 15:56:00
9:56 AM,54.0,48.9,83,30.28,10.0,WNW,3.5,-,N/A,,Partly Cloudy,290,2012-10-06 16:56:00
10:56 AM,55.9,46.0,69,30.28,10.0,WNW,3.5,-,N/A,,Partly Cloudy,300,2012-10-06 17:56:00
11:56 AM,57.9,43.0,58,30.27,10.0,WNW,4.6,-,N/A,,Partly Cloudy,290,2012-10-06 18:56:00
12:56 PM,57.9,45.0,62,30.26,10.0,WNW,5.8,-,N/A,,Partly Cloudy,290,2012-10-06 19:56:00
1:56 PM,57.9,42.1,56,30.24,10.0,WNW,5.8,-,N/A,,Partly Cloudy,300,2012-10-06 20:56:00
2:56 PM,59.0,43.0,55,30.22,10.0,NW,5.8,-,N/A,,Partly Cloudy,310,2012-10-06 21:56:00
3:56 PM,60.1,43.0,53,30.19,10.0,NW,4.6,-,N/A,,Partly Cloudy,320,2012-10-06 22:56:00
5:56 PM,55.0,45.0,69,30.16,10.0,West,3.5,-,N/A,,Partly Cloudy,270,2012-10-07 00:56:00
6:56 PM,53.1,44.1,71,30.16,10.0,Calm,Calm,-,N/A,,Partly Cloudy,0,2012-10-07 01:56:00
7:56 PM,51.1,44.1,77,30.16,10.0,SE,3.5,-,N/A,,Partly Cloudy,140,2012-10-07 02:56:00
8:56 PM,48.0,41.0,77,30.15,10.0,Calm,Calm,-,N/A,,Partly Cloudy,0,2012-10-07 03:56:00
9:56 PM,45.0,39.0,80,30.15,10.0,Calm,Calm,-,N/A,,Clear,0,2012-10-07 04:56:00
10:56 PM,43.0,37.9,82,30.15,10.0,Calm,Calm,-,N/A,,Clear,0,2012-10-07 05:56:00
11:56 PM,45.0,39.0,80,30.15,10.0,Calm,Calm,-,N/A,,Clear,0,2012-10-07 06:56:00